Location: Hilton Head Island
(32.2163°N, 80.7526°W)
Time: 07:16:15
(UTC-04:00)

Altair - Pass Details

Date: 17 February 2026
Orbit: 1502 x 1682 km, 47.2° (Epoch: 8 March)

Event Time Altitude Azimuth Distance (km) Brightness Sun altitude
Exits shadow 02:25:56 15° 88° (E) 3,310 9.5 -57.8°
Drops below altitude 10° 02:27:39 10° 79° (E) 3,670 9.8 -57.5°
Sets 02:31:32 0° 65° (ENE) 4,674 10.5 -56.8°
